Nogales, AZ

6:24 PM MST on November 13, 2019 (GMT -0700)
Nogales International

Weather History for KOLS - October, 2019

Change the Weather History Date:

Wednesday, October 23, 2019

  Actual Average (WUND) Record (WUND)
Temperature  
Mean Temperature 64 °F -  
Max Temperature 84 °F - - (-1)
Min Temperature 44 °F - - (-1)
Degree Days  
Heating Degree Days 1    
Growing Degree Days 14 (Base 50)    
Moisture  
Dew Point 24 °F    
Average Humidity 27    
Maximum Humidity 49    
Minimum Humidity 9    
Precipitation  
Precipitation 0.00 in - - ()
Sea Level Pressure  
Sea Level Pressure 29.88 in    
Wind  
Wind Speed 3 mph ()    
Max Wind Speed 9 mph    
Max Gust Speed -    
Visibility 10.0 miles    
Events      
Averages and records for this station are not official NWS values.
T = Trace of Precipitation, MM = Missing Value Source: Averaged Metar Reports

Daily Weather History Graph

Daily Weather History Graph

Search for Another Location

Airport or City:

Astronomy

Oct. 23, 2019 Rise Set
Actual Time 6:32 AM MST 5:42 PM MST
Civil Twilight 6:07 AM MST 6:07 PM MST
Nautical Twilight 5:38 AM MST 6:36 PM MST
Astronomical Twilight 5:10 AM MST 7:04 PM MST
Moon 1:22 AM MST (10/23) 3:11 PM MST (10/23)
Length of Visible Light 12h 00m
Length of Day
11h 10m
Waning Crescent, 25% of the Moon is Illuminated
Oct 23
Waning Crescent
Oct 27
New
Nov 4
First Quarter
Nov 12
Full
Nov 19
Last Quarter

Hourly Weather History & Observations

Time (MST) Temp. Windchill Dew Point Humidity Pressure Visibility Wind Dir Wind Speed Gust Speed Precip Events Conditions
12:54 AM 50.0 °F - 26.1 °F 39% 29.93 in 10.0 mi NE 5.8 mph - N/A   Clear
1:54 AM 48.9 °F - 26.1 °F 41% 29.92 in 10.0 mi Calm Calm - N/A   Clear
2:54 AM 48.0 °F - 26.1 °F 42% 29.91 in 10.0 mi Calm Calm - N/A   Clear
3:54 AM 46.9 °F - 26.1 °F 44% 29.91 in 10.0 mi Calm Calm - N/A   Clear
4:54 AM 45.0 °F - 26.1 °F 48% 29.91 in 10.0 mi Calm Calm - N/A   Clear
5:54 AM 44.1 °F - 26.1 °F 49% 29.93 in 10.0 mi Calm Calm - N/A   Clear
6:54 AM 45.0 °F 43.5 °F 26.1 °F 48% 29.95 in 10.0 mi NE 3.5 mph - N/A   Clear
7:54 AM 52.0 °F - 27.0 °F 38% 29.95 in 10.0 mi South 3.5 mph - N/A   Clear
8:54 AM 61.0 °F - 27.0 °F 27% 29.95 in 10.0 mi Calm Calm - N/A   Clear
9:54 AM 70.0 °F - 26.1 °F 19% 29.93 in 10.0 mi NW 3.5 mph - N/A   Clear
10:54 AM 79.0 °F - 24.1 °F 13% 29.89 in 10.0 mi Calm Calm - N/A   Clear
11:54 AM 82.0 °F - 19.0 °F 10% 29.87 in 10.0 mi Variable 3.5 mph - N/A   Clear
12:54 PM 84.0 °F - 19.9 °F 9% 29.84 in 10.0 mi NW 6.9 mph - N/A   Clear
1:54 PM 84.9 °F - 19.9 °F 9% 29.81 in 10.0 mi Variable 6.9 mph - N/A   Clear
2:54 PM 84.9 °F - 19.9 °F 9% 29.80 in 10.0 mi WNW 8.1 mph - N/A   Clear
3:54 PM 84.0 °F - 19.9 °F 9% 29.80 in 10.0 mi NW 9.2 mph - N/A   Clear
4:54 PM 81.0 °F - 19.0 °F 10% 29.81 in 10.0 mi NW 5.8 mph - N/A   Clear
5:54 PM 75.0 °F - 21.0 °F 13% 29.83 in 10.0 mi NNW 3.5 mph - N/A   Clear
6:54 PM 64.0 °F - 26.1 °F 24% 29.87 in 10.0 mi ENE 5.8 mph - N/A   Clear
7:54 PM 60.1 °F - 26.1 °F 27% 29.88 in 10.0 mi ENE 3.5 mph - N/A   Clear
8:54 PM 57.9 °F - 26.1 °F 30% 29.87 in 10.0 mi East 4.6 mph - N/A   Clear
9:54 PM 57.0 °F - 26.1 °F 30% 29.86 in 10.0 mi ENE 6.9 mph - N/A   Clear
10:54 PM 55.9 °F - 25.0 °F 30% 29.85 in 10.0 mi Calm Calm - N/A   Clear
11:54 PM 53.1 °F - 26.1 °F 35% 29.85 in 10.0 mi NNE 4.6 mph - N/A   Clear